Terminal Aerodrome Forecast
Issued by NWS Wilmington, OH

Current Version | Previous Version | Graphics & Text | Print | Product List | Glossary On
Versions: 1 2 3 4 5 6 7 8 9 10 11 12 13 14 15 16 17 18 19 20 21 22 23 24 25 26 27 28 29 30 31 32 33 34 35
928
FTUS41 KILN 280127 AAC
TAFCVG
TAF AMD
KCVG 280127Z 2801/2906 24004KT P6SM BKN110
      TEMPO 2801/2802 5SM -TSRA BR OVC040CB
     FM280800 18004KT 5SM BR VCTS BKN060CB
     FM281300 18007KT P6SM BKN035
     FM281800 23012G18KT P6SM VCTS BKN040CB
     FM290000 25007KT P6SM BKN110=

USA.gov is the U.S. government's official web portal to all federal, state and local government web resources and services.